QB50P1

Last updated on Wed Sep 17 2025 00:03:09 GMT+0000 (Coordinated Universal Time)

1 40025U 14033R 25259.40189213 .00009717 00000+0 56891-3 0 9998 2 40025 98.0919 247.6357 0012267 82.8264 277.4359 15.11992917611562
UTC large
Height (km)
Speed (km/s)
/
Latitude / Longitude
Inclination (degrees)
Orbital Period (minutes)
Azimuth
Elevation
Range (km)
Doppler Factor

Next 0 passes for location: London (51.5072 / 0.1276)

Sorry there are no passes over London.